Location: Bothwell
(42.3833°S, 147.0000°E)
Time: 22:07:49
(UTC+11:00)

RS-44 - Pass Details

Date: 04 October 2022
Orbit: 1175 x 1510 km, 82.5° (Epoch: 29 November)

Event Time Altitude Azimuth Distance (km) Brightness Sun altitude
Exits shadow 22:02:40 33° 107° (ESE) 2,334 ? -28.2°
Drops below altitude 10° 22:09:33 10° 156° (SSE) 3,700 ? -29.2°
Sets 22:12:49 0° 164° (SSE) 4,681 ? -29.7°
